Regional Weather Roundup
Issued by NWS

Home | Current Version | Previous Version | Graphics & Text | Print | Product List | Glossary On
Versions: 1 2 3 4 5 6 7 8 9 10 11 12 13 14 15 16 17 18 19 20 21 22 23 24 25 26 27 28 29
000
ASUS45 KGTF 201510
RWRMT
MONTANA HOURLY WEATHER ROUNDUP
NATIONAL WEATHER SERVICE GREAT FALLS MT
900 AM MDT MON APR 20 2015

NOTE: "FAIR" INDICATES FEW OR NO CLOUDS BELOW 12000 FEET WITH NO
SIGNIFICANT WEATHER AND/OR OBSTRUCTIONS TO VISIBILITY.

MTZ001>007-043-201600-
WEST OF THE DIVIDE

CITY           SKY/WX    TMP DP  RH WIND       PRES   REMARKS
KALISPELL      SUNNY     45  32  60 NE9       30.00S
MISSOULA       SUNNY     40  30  67 CALM      30.04S
BUTTE          SUNNY     34  25  69 CALM      30.02F
DEER LODGE       N/A     39  27  60 CALM      30.06F
EUREKA           N/A     43  30  61 CALM      30.04S
HAMILTON         N/A     45  28  53 S8        30.01F
LIBBY            N/A     41  32  70 CALM      30.02S
$$

MTZ008-052>055-201600-
SOUTHWEST MONTANA

CITY           SKY/WX    TMP DP  RH WIND       PRES   REMARKS
BOZEMAN        SUNNY     40  28  62 CALM      30.03F
DILLON         SUNNY     39  28  64 SW6       30.02F
$$

MTZ009-010-012-014-046-048-049-054-201600-
EAST SLOPES AND CENTRAL MONTANA

CITY           SKY/WX    TMP DP  RH WIND       PRES   REMARKS
CUT BANK       SUNNY     38  26  62 W5        29.96F
GREAT FALLS    SUNNY     43  28  55 S5        29.97S
MALMSTROM AFB  SUNNY     41  30  66 SW3       29.98S
HELENA         SUNNY     38  25  59 CALM      30.02F
$$

MTZ011-013-016-021-045-047-050-051-201600-
NORTH CENTRAL MONTANA

CITY           SKY/WX    TMP DP  RH WIND       PRES   REMARKS
HAVRE          SUNNY     37  24  59 SW8       29.99F WCI  31
LEWISTOWN      SUNNY     40  24  53 E6        29.98F
CHINOOK          N/A     37  21  52 CALM      29.99F
FORT BENTON      N/A     39  27  60 CALM      30.00S
$$

MTZ017>020-022>042-056>058-061-062-201600-
EASTERN PLAINS

CITY           SKY/WX    TMP DP  RH WIND       PRES   REMARKS
BAKER          MOSUNNY   39  23  52 NW9       29.94F
BILLINGS       SUNNY     39  25  57 SW9       30.00F
GLASGOW        SUNNY     39  26  59 NW8       29.97F
JORDAN           N/A     41  22  46 W6        29.97F
LIVINGSTON     SUNNY     39  27  62 NW10      30.01F
MILES CITY     SUNNY     41  21  44 W5        29.97F
SIDNEY         SUNNY     43  18  36 NW12      29.95F
WOLF POINT     SUNNY     40  26  57 W7        29.97F
FORSYTH          N/A     39  21  48 W9        29.99F
PLENTYWOOD       N/A     41  16  36 NW13G21   29.92F
POPLAR           N/A     39  21  48 SW6       29.97S
$$

REGIONAL REPORTS...DAKOTAS

CITY           SKY/WX    TMP DP  RH WIND       PRES   REMARKS
WILLISTON      SUNNY     42  15  33 N14G22    29.94F
MINOT          SUNNY     36  21  54 NW22      29.81F WCI  25
DICKINSON      SUNNY     40  17  39 NW17G28   29.87F
BEACH          PTSUNNY   39  16  38 NW14      29.94S WCI  31
CROSBY         FAIR      36  18  48 N16       29.93F WCI  26
WATFORD CITY   FAIR      37  18  44 N15       29.90S WCI  28
BISMARCK       SUNNY     39  14  36 NW26G36   29.81F WCI  28
GRAND FORKS    CLOUDY    36  26  67 NW28G38   29.62F WCI  23
FARGO          CLOUDY    36  27  69 NW22G30   29.64F WCI  25
BUFFALO SD       N/A     42  23  46 NW22      29.85F
RAPID CITY     SUNNY     46  22  38 NW24G30   29.92F
$$

REGIONAL REPORTS...WYOMING/IDAHO/WASHINGTON

CITY           SKY/WX    TMP DP  RH WIND       PRES   REMARKS
GILLETTE       SUNNY     42  20  41 W10       29.96F
SHERIDAN       SUNNY     43  23  45 NW6       29.99F
BUFFALO WY       N/A     43  19  38 N13       29.97F
CODY           SUNNY     39  27  60 CALM      30.00S
YELLOWSTONE LA   N/A     27  22  81 VRB3      30.06R
IDAHO FALLS    SUNNY     43  28  55 N6        30.01S
SALMON         SUNNY     37  27  65 CALM      30.04S
BOISE          SUNNY     54  31  41 S6        29.96S
SPOKANE        CLOUDY    49  35  58 E5        29.97R
$$

REGIONAL REPORTS...ALBERTA

CITY           SKY/WX    TMP DP  RH WIND       PRES   REMARKS
EDMONTON       SUNNY     46  25  42 W7        29.89F
CALGARY        MOSUNNY   50  23  34 N9        29.95S
LETHBRIDGE     SUNNY     41  30  65 W10       29.95S
MEDICINE HAT   MOSUNNY   41  27  56 SW3       29.96F
$$

REGIONAL REPORTS...SASKATCHEWAN

CITY           SKY/WX    TMP DP  RH WIND       PRES   REMARKS
SWIFT CURRENT  SUNNY     43  23  45 W10       29.93F
REGINA         MOSUNNY   36  19  51 N12       29.95F WCI  27
SASKATOON      MOSUNNY   41  18  38 S7        29.96F
$$



USA.gov is the U.S. government's official web portal to all federal, state and local government web resources and services.